Flag for Morocco Weather past 2 weeks in Tangier, Morocco

Now
55 °F

Passing clouds.


Feels Like: 54 °F
Forecast: N/A
Wind: 7 mph from Southwest

Location: Tanger Aerodrome

Current Time: Dec 27, 2014 at 9:33:27 PM

Latest Report: Dec 27, 2014 at 9:00 PM


Visibility: 5 mi

Pressure: 30.33 "Hg

Humidity: 77%

Dew point: 48 °F

Location of TangierLocation

Historic Weather in Tangier — Graph

°F

Tangier temperature yesterday

Maximum temperature yesterday: 63 °F (at 1:00 PM)
Minimum temperature yesterday: 41 °F (at 7:00 AM)
Average temperature yesterday: 50 °F

Past Weeks' High & Low Weather Summary

 TemperatureHumidityPressure
High68 °F (Dec 21, 1:00 PM)100% (Dec 17, 1:30 AM)30.48 "Hg (Dec 17, 1:30 AM)
Low39 °F (Dec 27, 1:30 AM)40% (Dec 13, 2:30 PM)29.80 "Hg (Dec 14, 2:00 PM)
Average54 °F83%30.27 "Hg
* Reported Dec 12 8:00 PM — Dec 27 8:00 PM, Tangier, Weather by CustomWeather, © 2014

Note: Actual official high and low records may vary slightly from our data, if they occured in-between our weather recording intervals... More about our weather records

Advertising

Tangier weather history for previous 24 hours

 ConditionsComfort  
Time TempWeatherWind HumidityBarometerVisibility
8:00 PM
Dec 27
55 °FPassing clouds.9 mph77%30.33 "Hg5 mi
7:30 PM55 °FPassing clouds.10 mph82%30.33 "Hg5 mi
7:00 PM55 °FPassing clouds.7 mph77%30.33 "Hg5 mi
6:30 PM57 °FPassing clouds.10 mph67%30.30 "Hg5 mi
6:00 PM55 °FPassing clouds.8 mph72%30.33 "Hg5 mi
5:30 PM57 °FPassing clouds.9 mph63%30.33 "Hg5 mi
5:00 PM57 °FPassing clouds.12 mph67%30.30 "Hg5 mi
4:30 PM59 °FPassing clouds.9 mph63%30.30 "Hg5 mi
3:30 PM59 °FPartly sunny.10 mph68%30.30 "Hg5 mi
3:00 PM59 °FPartly sunny.14 mph68%30.33 "Hg5 mi
2:30 PM61 °FPartly sunny.13 mph59%30.33 "Hg5 mi
2:00 PM59 °FPartly sunny.13 mph63%30.33 "Hg5 mi
1:30 PM59 °FPartly sunny.13 mph63%30.36 "Hg5 mi
1:00 PM57 °FPartly sunny.10 mph77%30.36 "Hg5 mi
12:30 PM57 °FPartly sunny.10 mph77%30.36 "Hg5 mi
12:00 PM55 °FPartly sunny.7 mph77%30.39 "Hg4 mi
11:30 AM55 °FPartly sunny.12 mph77%30.42 "Hg4 mi
11:00 AM55 °FPartly sunny.7 mph82%30.42 "Hg4 mi
10:30 AM54 °FPartly sunny.8 mph88%30.42 "Hg4 mi
10:00 AM52 °FPartly sunny.8 mph94%30.42 "Hg4 mi
9:30 AM52 °FPartly sunny.2 mph94%30.42 "Hg4 mi
9:00 AM48 °FPartly sunny.No wind94%30.42 "Hg4 mi
8:30 AM45 °FScattered clouds.2 mph93%30.42 "Hg4 mi
8:00 AM41 °FClear.1 mph93%30.42 "Hg5 mi
7:30 AM39 °FClear.No wind93%30.39 "Hg5 mi
7:00 AM39 °FFog.2 mph93%30.39 "Hg4 mi
6:30 AM41 °FFog.5 mph93%30.39 "Hg2 mi
6:00 AM41 °FClear.2 mph93%30.39 "Hg5 mi
5:30 AM41 °FFog.2 mph93%30.39 "Hg2 mi
5:00 AM43 °FFog.3 mph87%30.39 "HgN/A
4:30 AM41 °FFog.6 mph93%30.39 "Hg2 mi
3:30 AM43 °FClear.5 mph87%30.42 "HgN/A
3:00 AM43 °FClear.3 mph87%30.42 "Hg4 mi
2:30 AM41 °FClear.3 mph93%30.42 "Hg5 mi
2:00 AM43 °FFog.3 mph87%30.42 "Hg4 mi
1:30 AM39 °FClear.2 mph93%30.42 "Hg4 mi
1:00 AM43 °FClear.3 mph93%30.42 "Hg10 mi
12:00 AM45 °FPassing clouds.3 mph87%30.42 "HgN/A
11:30 PM
Dec 26
45 °FPassing clouds.3 mph87%30.42 "HgN/A
11:00 PM45 °FPassing clouds.3 mph87%30.45 "HgN/A
10:30 PM45 °FClear.2 mph87%30.45 "Hg10 mi
10:00 PM45 °FClear.3 mph87%30.45 "Hg10 mi
9:30 PM45 °FClear.3 mph87%30.42 "Hg10 mi
9:00 PM45 °FClear.2 mph87%30.42 "Hg10 mi
Weather by CustomWeather, © 2014

See weather overviewHow to use our weather pages